Flag for Norway

Past Weather in Lakselv, Norway — Yesterday and Last 2 Weeks

Now
46 °F

Light rain. Broken clouds.


Feels Like: 39 °F
Forecast: 51 / 46 °F
Wind: 18 mph from North

Location: Banak

Current Time: Jul 5, 2020 at 1:40:12 pm

Latest Report: Jul 5, 2020 at 12:50 pm


Visibility: N/A

Pressure: 29.47 "Hg

Humidity: 87%

Dew Point: 43 °F

Location of LakselvLocation

Past Weather in Lakselv — Graph

°F

Lakselv Temperature Yesterday

Maximum temperature yesterday: 54 °F (at 3:20 pm)
Minimum temperature yesterday: 43 °F (at 11:50 pm)
Average temperature yesterday: 48 °F

High & Low Weather Summary for the Past Weeks

 TemperatureHumidityPressure
High73 °F (Jun 25, 1:20 pm)100% (Jul 1, 8:20 am)30.30 "Hg (Jul 1, 8:20 am)
Low41 °F (Jun 29, 11:50 pm)39% (Jun 21, 6:20 pm)29.03 "Hg (Jul 1, 3:20 pm)
Average51 °F71%29.85 "Hg
* Reported Jun 20 12:20 pm — Jul 5 12:20 pm, Lakselv. Weather by CustomWeather, © 2020

Note: Actual official high and low records may vary slightly from our data, if they occured in-between our weather recording intervals... More about our weather records

Lakselv Weather History for the Previous 24 Hours

Scroll right to see more
 ConditionsComfort  
Time TempWeatherWind HumidityBarometerVisibility
12:20 pm
Sun, Jul 5
46 °FLight rain. Partly sunny.18 mph87%29.47 "HgN/A
11:50 am46 °FLight rain. Partly sunny.18 mph87%29.47 "HgN/A
11:20 am46 °FLight rain. Partly sunny.17 mph82%29.47 "HgN/A
10:50 am46 °FLight rain. Partly sunny.17 mph82%29.47 "HgN/A
10:20 am46 °FLight rain. Partly sunny.16 mph82%29.50 "HgN/A
9:50 am46 °FMostly cloudy.16 mph82%29.50 "HgN/A
9:20 am48 °FOvercast.15 mph71%29.50 "HgN/A
8:50 am48 °FOvercast.15 mph76%29.50 "HgN/A
8:20 am48 °FOvercast.13 mph76%29.50 "HgN/A
7:50 am46 °FOvercast.12 mph82%29.50 "HgN/A
7:20 am46 °FOvercast.12 mph82%29.50 "HgN/A
6:50 am46 °FPartly sunny.12 mph76%29.50 "HgN/A
6:20 am46 °FOvercast.10 mph76%29.53 "HgN/A
5:50 am46 °FOvercast.10 mph76%29.53 "HgN/A
5:20 am46 °FOvercast.10 mph76%29.53 "HgN/A
4:50 am46 °FMore clouds than sun.9 mph76%29.53 "HgN/A
4:20 am46 °FOvercast.9 mph76%29.53 "HgN/A
3:50 am46 °FPartly sunny.8 mph71%29.53 "HgN/A
3:20 am46 °FOvercast.6 mph76%29.56 "HgN/A
2:50 am46 °FPartly sunny.6 mph76%29.56 "HgN/A
1:50 am45 °FBroken clouds.7 mph81%29.56 "HgN/A
1:20 am45 °FScattered clouds.8 mph81%29.56 "HgN/A
12:50 am43 °FOvercast.8 mph87%29.56 "HgN/A
12:20 am41 °FPartly sunny.7 mph81%29.56 "HgN/A
11:50 pm
Sat, Jul 4
43 °FQuite cool.3 mph81%29.56 "HgN/A
11:20 pm46 °FScattered clouds.6 mph71%29.56 "HgN/A
10:50 pm46 °FScattered clouds.6 mph71%29.56 "HgN/A
10:20 pm48 °FPassing clouds.9 mph62%29.56 "HgN/A
9:50 pm48 °FPartly sunny.12 mph66%29.56 "HgN/A
9:20 pm48 °FPartly sunny.10 mph71%29.56 "HgN/A
8:50 pm48 °FPartly sunny.14 mph66%29.56 "HgN/A
8:20 pm48 °FPartly sunny.15 mph66%29.56 "HgN/A
7:50 pm48 °FBroken clouds.16 mph71%29.56 "HgN/A
7:20 pm48 °FPartly sunny.14 mph71%29.53 "HgN/A
6:50 pm48 °FPartly sunny.17 mph71%29.53 "HgN/A
6:20 pm50 °FPartly sunny.20 mph71%29.53 "HgN/A
5:50 pm50 °FPartly sunny.20 mph76%29.53 "HgN/A
5:20 pm54 °FBroken clouds.12 mph67%29.50 "HgN/A
4:50 pm54 °FBroken clouds.14 mph72%29.50 "HgN/A
4:20 pm54 °FBroken clouds.12 mph72%29.50 "HgN/A
3:50 pm52 °FBroken clouds.5 mph88%29.50 "HgN/A
3:20 pm54 °FScattered showers. Broken clouds.No wind77%29.50 "HgN/A
2:50 pm52 °FLight rain. Broken clouds.5 mph88%29.50 "HgN/A
2:20 pm52 °FScattered showers. Broken clouds.3 mph82%29.50 "HgN/A
1:50 pm52 °FBroken clouds.3 mph82%29.50 "HgN/A
1:20 pm52 °FBroken clouds.6 mph82%29.50 "HgN/A
Weather by CustomWeather, © 2020

See weather overview